NUSAT-4 (ADA) (43195 NORAD) Tracking and Keplerian Element Data

This shows tracking and keplerian element data for the satellite.

Feedback or suggestion? Click here.




ElementValue
Catalog43195
NameNUSAT-4 (ADA)
Epoch Orbit4423
Epoch Day323.88493541
Epoch Year2018
RAAN89.8081
Inclination97.3705
Eccentricity0.0016656
Argument of Perigee329.1497
Mean Anonmoly147.5892
Mean Motion15.23556296
Decay Rate8.42E-06
L11 43195U 18015D 18323.88493541 .00000842 00000-0 38082-4 0 9995
L22 43195 97.3705 89.8081 0016656 329.1497 147.5892 15.23556296 44231

Live tracking and technical data element details for NUSAT-4 (ADA) (NORAD 43195). NUSAT-4 (ADA) can be tracked NOW for your location showing map with azimuth and elevation plus other details from your city location.

Track the satellite on the map from your city or location and see movement details for azimuth, elevation, latitude, longitude, range, height, and movement on the map or in text.







IsCatalogInMostPopularTable: catalog: 43195, numindb: 111
Update: records affected: 1



GetName: 43195 NUSAT-4 (ADA)

Hit Count: updated at: Wed, 21 Nov 2018 05:51:04 GMT